Find Starlink 30534

NORAD ID: 57992 Int'l Des: 2023-153 Owner: SPXS Country: US Constellation: starlink operational
LEOCIRCULAR

Live-Position

3D-Globus wird geladen...

Über Starlink 30534

Beschreibung wird geladen...

Nächste Überflüge

Passes for default location (London). Set your location on the main map for personalized predictions.

Höhenverlauf

Loading altitude history...

Zweizeiliger Elementsatz

1 57992U 23153B 26123.24885854 .00002608 00000-0 10428-3 0 9998
2 57992 43.0006 118.6574 0001386 249.4238 110.6465 15.27578539143147
Epoch: 3. Mai 2026 • Age: 13 hours

Aktueller Status

Höhe 484.3 km
Geschwindigkeit 7.63 km/s
Subsatellitenpunkt 31.20°N, 107.2°E
Startdatum 5. Okt. 2023
Alter 2.5 years
Typ internet

Technische Details

Klassifizierung Payload
Masse 730.00 kg
Trockenmasse 700.00 kg
Gesamtmasse 730.00 kg
Länge 0.30 m
Durchmesser 4.10 m
Spannweite 29.00 m
Form Box + pan
Hersteller SPXS
Bus-Typ Starlink V2M
Phasenstatus In Orbit
Besitzer/Staat SPXS/US

Most Searched